Location: LDNL
(36.4545°S, 141.6685°E)
Time: 07:10:39
(UTC+10:00)

X-37B - Pass Details

Date: 05 July 2022
Orbit: 328 x 343 km, 45.0° (Epoch: 12 August)

Event Time Altitude Azimuth Distance (km) Brightness Sun altitude
Exits shadow 05:29:26 17° 82° (E) 997 3.5 -26.7°
Drops below altitude 10° 05:30:24 10° 96° (E) 1,310 4.2 -26.5°
Sets 05:32:38 0° 110° (ESE) 2,157 5.3 -26.0°
